When you browse on this site, cookies collect data to enhance your experience and personalize the content and advertising you see.
Visit our Privacy Policy to learn more. By continuing to use the site, you agree to this use of cookies and data.
  • In Österreich
  • Länderverzeichnis
  • Für 7 Tage
  • Wassertemperatur
  • Satellitenkarten
  • Wetterkarte
  • News
  • Widgets
  • user-avatar
    Anmelden

    Stündliche Wetter Peschaniki

    Heute, 17 Juli, Mittwoch

    Zeit Temperatur Niederschläge Wind Luftdruck Luftfeuchtigkeit
    00:00 +13°C° 0.1 mm 3 m/S 742 mmHg 95%
    01:00 +12°C° 0.1 mm 3 m/S 742 mmHg 95%
    02:00 +11°C° 0.1 mm 3 m/S 742 mmHg 95%
    03:00 +11°C° 0 mm 3 m/S 742 mmHg 96%
    04:00 +11°C° 0 mm 3 m/S 742 mmHg 97%
    05:00 +10°C° 0 mm 3 m/S 742 mmHg 98%
    06:00 +11°C° 0 mm 3 m/S 742 mmHg 96%
    07:00 +12°C° 0 mm 3 m/S 742 mmHg 94%
    08:00 +13°C° 0 mm 3 m/S 742 mmHg 91%
    09:00 +14°C° 0.4 mm 3 m/S 742 mmHg 86%
    10:00 +16°C° 0.4 mm 3 m/S 742 mmHg 81%
    11:00 +17°C° 0.4 mm 3 m/S 742 mmHg 76%
    12:00 +18°C° 1.1 mm 3 m/S 742 mmHg 77%
    13:00 +18°C° 1.1 mm 4 m/S 742 mmHg 78%
    14:00 +18°C° 1.1 mm 4 m/S 742 mmHg 78%
    15:00 +18°C° 0.9 mm 4 m/S 742 mmHg 79%
    16:00 +18°C° 0.9 mm 4 m/S 741 mmHg 80%
    17:00 +17°C° 0.9 mm 3 m/S 741 mmHg 81%
    18:00 +16°C° 0.5 mm 3 m/S 741 mmHg 85%
    19:00 +15°C° 0.5 mm 2 m/S 741 mmHg 89%
    20:00 +14°C° 0.5 mm 2 m/S 741 mmHg 93%
    21:00 +14°C° 0 mm 2 m/S 742 mmHg 94%
    22:00 +13°C° 0 mm 2 m/S 742 mmHg 94%
    23:00 +13°C° 0 mm 2 m/S 742 mmHg 95%

    Morgen, 18 Juli, Donnerstag

    Zeit Temperatur Niederschläge Wind Luftdruck Luftfeuchtigkeit
    00:00 +12°C° 0 mm 3 m/S 742 mmHg 95%
    01:00 +11°C° 0 mm 3 m/S 742 mmHg 96%
    02:00 +11°C° 0 mm 3 m/S 742 mmHg 96%
    03:00 +11°C° 0 mm 4 m/S 742 mmHg 97%
    04:00 +11°C° 0 mm 4 m/S 742 mmHg 97%
    05:00 +11°C° 0 mm 4 m/S 742 mmHg 98%
    06:00 +12°C° 0 mm 4 m/S 742 mmHg 97%
    07:00 +12°C° 0 mm 4 m/S 743 mmHg 95%
    08:00 +13°C° 0 mm 4 m/S 743 mmHg 94%
    09:00 +14°C° 0.1 mm 4 m/S 743 mmHg 93%
    10:00 +14°C° 0.1 mm 4 m/S 743 mmHg 91%
    11:00 +15°C° 0.1 mm 4 m/S 744 mmHg 90%
    12:00 +17°C° 0.6 mm 4 m/S 744 mmHg 87%
    13:00 +18°C° 0.6 mm 4 m/S 744 mmHg 84%
    14:00 +20°C° 0.6 mm 5 m/S 744 mmHg 81%
    15:00 +20°C° 0.8 mm 4 m/S 744 mmHg 82%
    16:00 +20°C° 0.8 mm 4 m/S 744 mmHg 83%
    17:00 +20°C° 0.8 mm 4 m/S 744 mmHg 85%
    18:00 +19°C° 0.2 mm 4 m/S 744 mmHg 87%
    19:00 +18°C° 0.2 mm 4 m/S 744 mmHg 90%
    20:00 +17°C° 0.2 mm 3 m/S 744 mmHg 92%
    21:00 +16°C° 0 mm 3 m/S 745 mmHg 93%
    22:00 +14°C° 0 mm 3 m/S 745 mmHg 94%
    23:00 +14°C° 0 mm 3 m/S 746 mmHg 95%

    übermorgen, 19 Juli, Freitag

    Zeit Temperatur Niederschläge Wind Luftdruck Luftfeuchtigkeit
    00:00 +13°C° 0 mm 3 m/S 746 mmHg 95%
    01:00 +13°C° 0 mm 3 m/S 746 mmHg 96%
    02:00 +12°C° 0 mm 3 m/S 746 mmHg 96%
    03:00 +12°C° 0 mm 3 m/S 746 mmHg 95%
    04:00 +12°C° 0 mm 3 m/S 746 mmHg 95%
    05:00 +11°C° 0 mm 3 m/S 747 mmHg 95%
    06:00 +13°C° 0 mm 3 m/S 747 mmHg 90%
    07:00 +16°C° 0 mm 3 m/S 747 mmHg 85%
    08:00 +17°C° 0 mm 3 m/S 747 mmHg 80%
    09:00 +19°C° 0 mm 3 m/S 747 mmHg 73%
    10:00 +21°C° 0 mm 3 m/S 747 mmHg 65%
    11:00 +22°C° 0 mm 3 m/S 747 mmHg 58%
    12:00 +24°C° 0.3 mm 3 m/S 747 mmHg 58%
    13:00 +24°C° 0.3 mm 3 m/S 747 mmHg 59%
    14:00 +24°C° 0.3 mm 3 m/S 747 mmHg 59%
    15:00 +24°C° 0.1 mm 3 m/S 747 mmHg 60%
    16:00 +24°C° 0.1 mm 3 m/S 747 mmHg 61%
    17:00 +24°C° 0.1 mm 3 m/S 747 mmHg 62%
    18:00 +21°C° 0.1 mm 2 m/S 747 mmHg 70%
    19:00 +19°C° 0.1 mm 2 m/S 748 mmHg 78%
    20:00 +18°C° 0.1 mm 2 m/S 748 mmHg 85%
    21:00 +18°C° 0 mm 1 m/S 748 mmHg 87%
    22:00 +16°C° 0 mm 1 m/S 748 mmHg 89%
    23:00 +15°C° 0 mm 1 m/S 749 mmHg 91%

    20 Juli, Samstag

    Zeit Temperatur Niederschläge Wind Luftdruck Luftfeuchtigkeit
    00:00 +15°C° 0 mm 1 m/S 749 mmHg 92%
    01:00 +14°C° 0 mm 1 m/S 749 mmHg 92%
    02:00 +14°C° 0 mm 1 m/S 749 mmHg 93%
    03:00 +14°C° 0 mm 1 m/S 749 mmHg 93%
    04:00 +14°C° 0 mm 1 m/S 749 mmHg 93%
    05:00 +14°C° 0 mm 1 m/S 749 mmHg 93%
    06:00 +16°C° 0 mm 1 m/S 749 mmHg 86%
    07:00 +19°C° 0 mm 1 m/S 750 mmHg 79%
    08:00 +21°C° 0 mm 1 m/S 750 mmHg 73%
    09:00 +22°C° 0 mm 1 m/S 750 mmHg 67%
    10:00 +23°C° 0 mm 2 m/S 750 mmHg 61%
    11:00 +25°C° 0 mm 2 m/S 750 mmHg 55%
    12:00 +25°C° 0 mm 2 m/S 750 mmHg 53%
    13:00 +26°C° 0 mm 2 m/S 750 mmHg 51%
    14:00 +26°C° 0 mm 2 m/S 750 mmHg 48%
    15:00 +26°C° 0 mm 2 m/S 750 mmHg 51%
    16:00 +26°C° 0 mm 2 m/S 750 mmHg 54%
    17:00 +25°C° 0 mm 2 m/S 750 mmHg 57%
    18:00 +24°C° 0 mm 1 m/S 750 mmHg 64%
    19:00 +22°C° 0 mm 1 m/S 750 mmHg 72%
    20:00 +20°C° 0 mm 1 m/S 751 mmHg 79%
    21:00 +19°C° 0 mm 1 m/S 751 mmHg 82%
    22:00 +18°C° 0 mm 1 m/S 751 mmHg 84%
    23:00 +15°C° 0 mm 0 m/S 751 mmHg 87%

    21 Juli, Sonntag

    Zeit Temperatur Niederschläge Wind Luftdruck Luftfeuchtigkeit
    00:00 +15°C° 0 mm 0 m/S 752 mmHg 87%
    01:00 +14°C° 0 mm 0 m/S 752 mmHg 88%
    02:00 +14°C° 0 mm 0 m/S 752 mmHg 89%
    03:00 +14°C° 0 mm 0 m/S 752 mmHg 88%
    04:00 +14°C° 0 mm 0 m/S 752 mmHg 88%
    05:00 +14°C° 0 mm 0 m/S 752 mmHg 88%
    06:00 +16°C° 0 mm 0 m/S 752 mmHg 80%
    07:00 +20°C° 0 mm 1 m/S 752 mmHg 73%
    08:00 +22°C° 0 mm 1 m/S 752 mmHg 65%
    09:00 +23°C° 0 mm 1 m/S 753 mmHg 60%
    10:00 +25°C° 0 mm 1 m/S 753 mmHg 55%
    11:00 +26°C° 0 mm 1 m/S 753 mmHg 49%
    12:00 +26°C° 0 mm 1 m/S 753 mmHg 49%
    13:00 +27°C° 0 mm 2 m/S 753 mmHg 49%
    14:00 +27°C° 0 mm 2 m/S 752 mmHg 49%
    15:00 +27°C° 0 mm 2 m/S 752 mmHg 52%
    16:00 +27°C° 0 mm 2 m/S 752 mmHg 54%
    17:00 +26°C° 0 mm 2 m/S 752 mmHg 57%
    18:00 +25°C° 0 mm 2 m/S 752 mmHg 63%
    19:00 +23°C° 0 mm 1 m/S 752 mmHg 69%
    20:00 +21°C° 0 mm 1 m/S 752 mmHg 75%
    21:00 +20°C° 0 mm 1 m/S 752 mmHg 75%
    22:00 +19°C° 0 mm 1 m/S 753 mmHg 76%
    23:00 +18°C° 0 mm 1 m/S 753 mmHg 76%

    22 Juli, Montag

    Zeit Temperatur Niederschläge Wind Luftdruck Luftfeuchtigkeit
    00:00 +18°C° 0 mm 1 m/S 753 mmHg 77%
    01:00 +18°C° 0 mm 1 m/S 753 mmHg 78%
    02:00 +18°C° 0 mm 1 m/S 753 mmHg 79%
    03:00 +16°C° 0 mm 1 m/S 752 mmHg 81%
    04:00 +16°C° 0 mm 1 m/S 752 mmHg 82%
    05:00 +16°C° 0 mm 1 m/S 752 mmHg 84%
    06:00 +19°C° 0 mm 1 m/S 752 mmHg 80%
    07:00 +20°C° 0 mm 1 m/S 752 mmHg 75%
    08:00 +22°C° 0 mm 1 m/S 752 mmHg 71%
    09:00 +23°C° 0 mm 1 m/S 752 mmHg 71%
    10:00 +23°C° 0 mm 1 m/S 752 mmHg 71%
    11:00 +24°C° 0 mm 1 m/S 752 mmHg 70%
    12:00 +24°C° 0 mm 2 m/S 751 mmHg 67%
    13:00 +25°C° 0 mm 3 m/S 751 mmHg 64%
    14:00 +26°C° 0 mm 3 m/S 751 mmHg 61%
    15:00 +27°C° 0.1 mm 3 m/S 750 mmHg 61%
    16:00 +27°C° 0.1 mm 3 m/S 750 mmHg 61%
    17:00 +27°C° 0.1 mm 3 m/S 750 mmHg 61%
    18:00 +25°C° 0.4 mm 3 m/S 749 mmHg 70%
    19:00 +23°C° 0.4 mm 2 m/S 749 mmHg 78%
    20:00 +20°C° 0.4 mm 2 m/S 749 mmHg 87%
    21:00 +20°C° 0.1 mm 2 m/S 749 mmHg 90%
    22:00 +20°C° 0.1 mm 1 m/S 749 mmHg 93%
    23:00 +19°C° 0.1 mm 1 m/S 749 mmHg 95%
    Mehr zeigen